This demonstration page uses our WeatherBlox Daily Observations layout. Learn more.

Left ArrowRight Arrow

Hourly Observations for August 18, 2019

Temp ( °F °C ) Dew Point ( °F °C ) Humidity (%) Winds ( mph kmh ) Pressure ( in mb ) Visibility ( mi km ) Precip ( " mm )
12:34 am 00:34 Cloudy 78 25.6 73 22.8 85 85 SSW 5 7 30.04 1017 10 16 0.00 0.00
12:59 am 00:59 Mostly Cloudy 77 25 73 22.8 88 88 S 3 6 30.03 1017 10 16 0.00 0.00
1:59 am 01:59 Mostly Cloudy 76 24.4 73 22.8 91 91 S 6 9 30.02 1017 10 16 0.00 0.00
2:59 am 02:59 Mostly Cloudy 75 23.9 72 22.2 90 90 SSW 5 7 30.01 1016 10 16 0.00 0.00
3:59 am 03:59 Mostly Cloudy 75 23.9 73 22.8 94 94 Calm 30.00 1016 10 16 0.00 0.00
4:59 am 04:59 Mostly Cloudy 74 23.3 72 22.2 94 94 Calm 30.00 1016 10 16 0.00 0.00
5:59 am 05:59 Mostly Cloudy 74 23.3 72 22.2 94 94 SSE 3 6 30.02 1017 10 16 0.00 0.00
6:59 am 06:59 Mostly Cloudy 74 23.3 72 22.2 94 94 SSE 5 7 30.03 1017 10 16 0.00 0.00
7:59 am 07:59 Mostly Cloudy 75 23.9 73 22.8 94 94 Calm 30.02 1017 10 16 0.00 0.00
8:59 am 08:59 Mostly Cloudy 78 25.6 74 23.3 87 87 Calm 30.04 1017 10 16 0.00 0.00
9:59 am 09:59 Mostly Cloudy 80 26.7 73 22.8 79 79 Calm 30.03 1017 10 16 0.00 0.00
10:59 am 10:59 Mostly Cloudy 83 28.3 74 23.3 74 74 E 7 11 30.04 1017 10 16 0.00 0.00
11:59 am 11:59 Mostly Cloudy 86 30 72 22.2 63 63 E 6 9 30.03 1017 10 16 0.00 0.00
12:59 pm 12:59 Mostly Cloudy 85 29.4 73 22.8 68 68 E 8 13 30.04 1017 10 16 0.00 0.00
1:59 pm 13:59 Mostly Cloudy 86 30 75 23.9 70 70 ENE 8 13 30.04 1017 10 16 0.00 0.00
2:59 pm 14:59 Mostly Cloudy 86 30 76 24.4 72 72 ENE 7 11 30.02 1017 10 16 0.00 0.00
3:59 pm 15:59 Mostly Cloudy 87 30.6 75 23.9 67 67 ENE 5 7 30.00 1016 10 16 0.00 0.00
4:59 pm 16:59 Partly Cloudy 86 30 74 23.3 67 67 ENE 8 13 29.98 1015 10 16 0.00 0.00
5:59 pm 17:59 Partly Cloudy 85 29.4 73 22.8 68 68 ENE 6 9 29.98 1015 10 16 0.00 0.00
6:59 pm 18:59 Partly Cloudy 83 28.3 73 22.8 72 72 E 6 9 29.98 1015 10 16 0.00 0.00
7:59 pm 19:59 Partly Cloudy 81 27.2 74 23.3 79 79 ESE 3 6 29.98 1015 10 16 0.00 0.00
8:59 pm 20:59 Mostly Clear 79 26.1 74 23.3 85 85 ESE 3 6 29.99 1016 10 16 0.00 0.00
9:59 pm 21:59 Clear 78 25.6 74 23.3 87 87 SSE 3 6 30.01 1016 10 16 0.00 0.00
10:59 pm 22:59 Partly Cloudy 78 25.6 74 23.3 87 87 SSE 5 7 30.01 1016 10 16 0.00 0.00
11:59 pm 23:59 Partly Cloudy 77 25 75 23.9 94 94 S 6 9 30.01 1016 10 16 0.00 0.00

Powered by AerisWeather